^^
Station Historical Data
 
Daily Summary for August 16, 2018 Units:  English    Metric   Both
« Previous Day
Next Day »
Daily Weekly Monthly Yearly Custom
  Current: High: Low: Average:
Temperature: 82.6 °F TemperatureF °F 81.2 °F 80.8 °F
Dew Point: 71.8 °F DewpointF °F 69.5 °F 68.9 °F
Humidity: 70% Humidity% 63% 65%
Wind Speed: 3mph WindSpeedMPHmph 1mph 3.6mph
Wind Gust: 9mph WindSpeedGustMPHmph - -
WindSouth - - SSE
Pressure: 29.91 in PressureIn in 29.89 in -
Precipitation: 0 in      
Historical Graphs
 
 
Tabular Data for August 16, 2018
Time Temperature Dew Point Pressure Wind Wind Speed Wind Gust Humidity Rainfall Rate (Hourly) solar Conditions
TemperatureF °F DewpointF °F PressureIn in Calm     Humidity% HourlyPrecipIn in SolarRadiationWatts/m^2 W/m2 Conditions
00:04 83.6 °F 70.1 °F 29.89 in SSE 4 mph 6 mph 64% 0 in 0.00 W/m2
00:09 83.8 °F 70.8 °F 29.89 in SSE 2 mph 6 mph 65% 0 in 0.00 W/m2
00:14 83.7 °F 70.7 °F 29.89 in SSE 4 mph 6 mph 65% 0 in 0.00 W/m2
00:19 83.6 °F 70.6 °F 29.89 in SSE 2 mph 5 mph 65% 0 in 0.00 W/m2
00:24 83.3 °F 71.2 °F 29.90 in SSE 1 mph 3 mph 67% 0 in 0.00 W/m2
00:29 82.2 °F 70.6 °F 29.90 in SSE 2 mph 5 mph 68% 0 in 0.00 W/m2
00:34 82.4 °F 70.3 °F 29.89 in SSE 4 mph 5 mph 67% 0 in 0.00 W/m2
00:39 83 °F 70 °F 29.89 in SSE 1 mph 6 mph 65% 0 in 0.00 W/m2
00:44 83.4 °F 70.8 °F 29.89 in SSE 4 mph 6 mph 66% 0 in 0.00 W/m2
00:49 83.3 °F 70.3 °F 29.89 in SSE 1 mph 6 mph 65% 0 in 0.00 W/m2
00:54 83.4 °F 69.5 °F 29.90 in SSE 1 mph 6 mph 63% 0 in 0.00 W/m2
00:59 83.4 °F 70.4 °F 29.90 in SSE 2 mph 6 mph 65% 0 in 0.00 W/m2
01:04 83.4 °F 69.9 °F 29.90 in SSE 1 mph 6 mph 64% 0 in 0.00 W/m2
01:09 83.2 °F 69.7 °F 29.89 in SSE 2 mph 6 mph 64% 0 in 0.00 W/m2
01:14 82.9 °F 69.9 °F 29.89 in SSE 2 mph 5 mph 65% 0 in 0.00 W/m2
01:19 82.6 °F 69.6 °F 29.90 in SSE 2 mph 5 mph 65% 0 in 0.00 W/m2
01:24 82.4 °F 69.9 °F 29.90 in SSE 2 mph 6 mph 66% 0 in 0.00 W/m2
01:29 82.6 °F 69.6 °F 29.90 in SSE 4 mph 6 mph 65% 0 in 0.00 W/m2
01:34 82.6 °F 70.1 °F 29.90 in SSE 1 mph 5 mph 66% 0 in 0.00 W/m2
01:39 82.4 °F 70.3 °F 29.90 in SSE 4 mph 5 mph 67% 0 in 0.00 W/m2
01:44 82 °F 69.9 °F 29.90 in SSE 1 mph 5 mph 67% 0 in 0.00 W/m2
01:49 81.2 °F 69.6 °F 29.90 in SSE 2 mph 3 mph 68% 0 in 0.00 W/m2
01:54 81.3 °F 70.1 °F 29.90 in SSE 2 mph 6 mph 69% 0 in 0.00 W/m2
01:59 81.6 °F 70 °F 29.90 in SSE 4 mph 5 mph 68% 0 in 0.00 W/m2
02:04 82 °F 69.9 °F 29.90 in SSE 6 mph 7 mph 67% 0 in 0.00 W/m2
02:09 82.3 °F 70.2 °F 29.90 in South 5 mph 7 mph 67% 0 in 0.00 W/m2
02:14 82.6 °F 70.5 °F 29.90 in South 4 mph 10 mph 67% 0 in 0.00 W/m2
02:19 82.7 °F 70.6 °F 29.90 in South 8 mph 10 mph 67% 0 in 0.00 W/m2
02:24 82.9 °F 71.2 °F 29.90 in South 3 mph 10 mph 68% 0 in 0.00 W/m2
02:29 83.1 °F 71 °F 29.90 in South 7 mph 11 mph 67% 0 in 0.00 W/m2
02:34 83.1 °F 71.4 °F 29.90 in SSE 9 mph 11 mph 68% 0 in 0.00 W/m2
02:39 83.1 °F 71.4 °F 29.90 in South 5 mph 10 mph 68% 0 in 0.00 W/m2
02:44 83.2 °F 71.5 °F 29.91 in SSE 7 mph 14 mph 68% 0 in 0.00 W/m2
02:49 83.2 °F 71.5 °F 29.91 in SSE 5 mph 14 mph 68% 0 in 0.00 W/m2
02:54 83 °F 71.8 °F 29.91 in South 4 mph 11 mph 69% 0 in 0.00 W/m2
02:59 82.9 °F 71.7 °F 29.91 in SSE 6 mph 10 mph 69% 0 in 0.00 W/m2
03:04 82.8 °F 71.6 °F 29.91 in SSE 9 mph 8 mph 69% 0 in 0.00 W/m2
03:09 82.8 °F 71.6 °F 29.91 in SSE 7 mph 10 mph 69% 0 in 0.00 W/m2
03:14 82.7 °F 71.9 °F 29.91 in South 4 mph 10 mph 70% 0 in 0.00 W/m2
03:19 82.6 °F 71.8 °F 29.91 in South 3 mph 9 mph 70% 0 in 0.00 W/m2
Southlake, Texas, USA
Compliments of Weather Underground - 3.75 mb